Location: Cabrera Alta
(40.4135°N, 4.3544°W)
Time: 23:26:39
(UTC+00:00)

Daily predictions for brighter satellites

Satellite Brightness Start Highest point End
(mag) Time Altitude Azimuth Time Altitude Azimuth Time Altitude Azimuth
Cosmos-2242 3.8 20:18:03 10° N 20:22:02 34° ENE 20:26:03 10° SE
OAO 2 Rocket 3.9 20:21:08 10° WSW 20:26:08 46° S 20:31:12 10° ESE
Cosmos 1455 2.2 20:22:39 10° N 20:26:31 66° E 20:30:21 10° SSE
Cosmos 2322 Rocket 4.4 20:22:46 10° WSW 20:27:41 31° WNW 20:32:38 10° N
NOSS 3-3 (A) 3.9 20:22:28 10° SSW 20:28:05 64° ESE 20:34:23 10° NE
NOSS 3-3 (C) 3.9 20:22:33 10° SSW 20:28:12 63° ESE 20:34:29 10° NE
IRIS 4.5 20:27:25 10° W 20:31:43 76° N 20:34:30 10° E
ATLAS CENTAUR R/B 2.3 20:28:45 10° NNW 20:31:59 29° NE 20:35:12 10° ESE
H-2A R/B 4.1 20:33:58 10° SSW 20:38:35 28° W 20:43:14 10° NW
DMSP B5D2-2 4.5 20:33:55 10° N 20:39:07 68° WNW 20:44:16 10° SSW
Cosmos 1400 Rocket 2.7 20:41:52 10° N 20:45:48 68° E 20:49:39 10° SSE
H-2A ROCKET BODY 3.9 20:43:07 10° SW 20:47:10 26° S 20:56:54 12° SE
Cosmos 2084 4.0 20:44:00 10° NNW 20:48:20 49° NE 20:51:53 14° ESE
SPOT 3 Rocket 3.8 20:43:11 10° S 20:48:24 75° WSW 20:53:38 10° NNW
ATLAS 2AS CENTAUR R/B 4.3 20:42:08 10° NNW 20:48:25 27° NE 20:54:19 10° E
Cosmos 1709 Rocket 4.0 20:44:31 10° S 20:50:45 69° E 20:57:06 10° NNE
Genesis I 4.1 20:47:31 10° S 20:50:53 28° ESE 20:54:14 10° NE
Nadezhda 1 Rocket 4.3 20:46:42 10° NNW 20:53:04 72° W 20:59:23 10° S
Terra 3.9 20:51:03 10° E 20:53:14 13° ENE 20:55:26 10° NE
Cosmos 2219 Rocket 2.2 20:50:50 10° SSW 20:56:25 89° ESE 21:02:03 10° NNE
Cosmos 1844 3.9 20:53:10 10° NNW 20:58:54 73° WSW 21:04:19 11° SSE
ERS-1 Rocket 4.3 20:56:37 14° ESE 20:59:53 25° ENE 21:03:59 10° NNE
Cosmos 2322 4.4 20:54:28 10° SW 21:00:06 58° WNW 21:05:45 10° NNE
Cosmos 1758 Rocket 4.4 20:57:18 10° SSW 21:01:41 53° W 21:06:05 10° N
Cosmos 2237 Rocket 2.9 20:56:48 10° SSE 21:01:48 33° ESE 21:06:50 10° NE
COSMOS 2428 2.7 20:56:10 10° SSW 21:01:50 87° ESE 21:07:33 10° NNE
Cosmos 2360 Rocket 4.3 20:57:09 10° WSW 21:02:06 31° WNW 21:07:06 10° N
USA 215 4.0 20:56:57 10° ENE 21:02:19 27° SE 21:07:39 10° S
Cosmos 1538 Rocket 4.0 20:57:11 10° SSW 21:02:33 82° ESE 21:07:53 10° NNE
CZ-2C R/B 4.0 20:58:46 10° N 21:03:45 40° WNW 21:08:36 10° SW
Cosmos 1703 4.3 21:01:22 10° SSW 21:05:06 46° W 21:08:52 10° N
Resurs 01 Rocket 2.0 21:05:45 10° S 21:10:07 62° W 21:14:30 10° NNW
IGS 5A 3.7 21:10:00 20° SE 21:12:40 55° ENE 21:16:45 10° N
SAR-Lupe-2 4.2 21:12:06 10° NNE 21:15:28 37° E 21:16:56 25° SSE
BREEZE-M (TANK) 3.8 21:20:35 10° SSW 21:24:05 47° SE 21:35:44 10° ENE
Cosmos 1892 3.9 21:23:56 24° ESE 21:24:31 25° E 21:27:39 10° NE
Cosmos 1953 Rocket 4.2 21:21:24 10° SSW 21:25:37 53° W 21:29:53 10° N
Cosmos 2344 3.9 21:19:39 10° S 21:26:41 40° ESE 21:33:40 10° NE
Cosmos 2333 Rocket 3.2 21:21:26 10° SW 21:26:55 49° WNW 21:32:29 10° NNE
VEP-3 4.2 21:22:44 10° SW 21:27:15 23° S 21:29:42 20° SSE
Cosmos 1844 Rocket 4.2 21:27:10 10° NW 21:31:56 30° WSW 21:36:40 10° SSW
USA 245 3.3 21:30:37 27° S 21:32:34 82° WSW 21:37:06 10° NNW
Hubble Space Telescope 2.8 21:31:09 10° SSW 21:32:24 14° SSW 21:32:24 14° SSW
Spot 2 Rocket 3.5 21:30:33 20° S 21:34:05 82° WSW 21:39:13 10° NNW
Cosmos 1869 3.9 21:30:21 10° N 21:34:12 42° E 21:35:29 32° ESE
Meteor 1-27 4.3 21:31:20 10° N 21:37:08 90° SSE 21:41:03 22° S
Cosmos 1842 Rocket 3.6 21:33:44 10° N 21:38:01 60° E 21:39:45 33° SSE
DELTA 2 R/B (1) 3.5 21:32:43 10° W 21:38:18 81° S 21:43:27 12° E
Cosmos 2058 3.5 21:37:54 33° SE 21:38:54 38° E 21:42:45 10° NNE
Cosmos 2278 Rocket 2.3 21:35:14 10° NNW 21:40:53 64° ENE 21:43:46 29° SE
Landsat 7 4.0 21:40:08 23° S 21:43:06 70° WSW 21:47:51 10° NNW
NOSS 0 Rocket 3.9 21:38:38 10° SSW 21:44:47 85° WNW 21:51:00 10° NNE
Cosmos 44 3.4 21:44:55 37° SE 21:45:30 39° ESE 21:49:35 10° NE
SL-16 R/B 3.0 21:49:05 28° ESE 21:49:55 29° ESE 21:54:45 10° NE
Elektron 1 3.8 21:49:11 26° SSW 21:50:44 84° SE 21:54:47 10° NE
BREEZE-M DEB (TANK) 4.0 21:50:14 10° WNW 21:53:26 36° SW 21:54:38 30° S
Cosmos 2154 Rocket 4.2 21:51:39 30° SSE 21:54:29 51° E 22:00:28 10° NNE
Cosmos 2074 Rocket 3.9 21:50:35 20° S 21:55:03 85° E 22:01:17 10° N
In-Cosmos 22 Rocket 4.0 21:53:15 28° S 21:56:03 73° E 22:01:22 10° NNE
Cosmos 1680 Rocket 3.4 21:54:07 19° SSW 21:58:03 85° ESE 22:03:24 10° NNE
CARTOSAT-1 3.5 21:56:37 41° SSE 21:58:07 88° ENE 22:02:27 10° NNW
SPOT 5 2.8 21:57:57 37° SSE 21:59:54 80° ENE 22:04:39 10° N
Atlas Centaur 2 3.9 21:57:30 10° SW 22:00:50 16° SSW 22:00:50 16° SSW
Cosmos 1825 3.5 22:01:49 26° ENE 22:01:49 26° ENE 22:04:31 10° NNE
Cosmos 2221 2.5 22:00:40 10° N 22:05:02 81° W 22:06:23 44° S
Cosmos 1315 Rocket 4.1 22:02:09 10° NNW 22:05:58 37° W 22:07:54 23° SW
OAO 2 Rocket 4.4 22:05:58 10° WSW 22:10:28 28° SSW 22:10:33 28° SSW
ATLAS CENTAUR R/B 3.0 22:07:59 10° WNW 22:10:40 20° WSW 22:11:24 18° SW
NOSS 3-4 (A) 3.9 22:05:38 10° NNW 22:12:44 75° NE 22:16:34 33° SE
NOSS 3-4 (C) 3.9 22:05:45 10° NNW 22:12:52 74° NE 22:16:41 33° SE
Cosmos 2327 Rocket 4.4 22:13:14 31° S 22:16:22 84° E 22:22:30 10° N
Cosmos 1295 Rocket 4.5 22:17:06 39° SSE 22:19:18 63° E 22:25:20 10° NNE
Gbstr 26 Del rocket 2.5 22:17:10 10° SW 22:20:56 86° NW 22:24:45 10° NE
GEOS 3 Rocket 4.2 22:18:14 10° NNE 22:23:32 59° NW 22:28:48 10° SW
TIMED 4.4 22:23:38 51° SSW 22:24:41 84° WNW 22:29:05 10° NNE
Aureole 2 Rocket 3.9 22:22:21 10° N 22:24:08 25° NNE 22:24:08 25° NNE
BREEZE M DEB (TANK) 4.4 22:23:34 10° WNW 22:24:02 15° WNW 22:24:02 15° WNW
Cosmos 2369 Rocket 4.3 22:25:25 10° N 22:28:53 16° NE 22:31:45 12° E
Cosmos 2151 3.2 22:29:12 53° E 22:29:12 53° E 22:33:14 10° NNE
Cosmos 1408 2.6 22:30:14 73° NW 22:30:14 73° NW 22:33:38 10° N
Terra 1.9 22:29:14 50° SSW 22:30:22 71° WSW 22:35:08 10° NNW
Lacrosse 5 rocket 3.9 22:28:55 10° N 22:31:05 14° NNE 22:33:12 10° NE
Cosmos 1766 Rocket 4.4 22:32:48 35° ENE 22:32:48 35° ENE 22:36:25 10° NNE
Cosmos 1076 Rocket 4.1 22:32:55 39° SW 22:34:08 53° W 22:38:19 10° N
Cosmos 1624 Rocket 3.9 22:32:53 10° NNW 22:38:07 80° ENE 22:39:04 60° SE
ERS-1 Rocket 4.0 22:36:37 28° SW 22:38:28 37° W 22:43:09 10° NNW
ATLAS 2AS CENTAUR R/B 2.7 22:32:47 10° NW 22:40:18 82° WSW 22:42:43 45° SSE
CZ-4C R/B 4.4 22:38:16 10° NNW 22:44:13 27° NE 22:50:51 10° E
USA 215 3.3 22:39:09 10° NE 22:45:43 81° NW 22:52:15 10° SW
Cosmos 2237 Rocket 3.6 22:40:35 10° SW 22:45:46 36° WNW 22:51:00 10° N
Okean 3 Rocket 3.6 22:52:12 71° ENE 22:52:12 71° ENE 22:56:26 10° NNE
Iridium 2 4.1 22:50:48 10° N 22:54:10 61° NW 22:54:10 61° NW
EO 1 Del DPAF 4.2 23:02:00 10° NNE 23:04:35 41° NE 23:04:35 41° NE
BREEZE-M DEB (TANK) 3.6 23:01:40 10° WNW 23:04:45 30° W 23:04:45 30° W
Cosmos 1151 Rocket 3.5 23:02:13 10° N 23:05:57 52° NE 23:05:57 52° NE
Cosmos 1371 Rocket 4.5 23:02:26 10° NNW 23:07:31 48° WSW 23:08:11 45° SW
BREEZE-M DEB (TANK) 3.0 23:07:00 45° WNW 23:07:46 59° NNW 23:14:44 10° ENE
Cosmos 1943 Rocket 2.8 23:04:09 10° NNW 23:09:35 45° ENE 23:10:41 40° E
Cosmos 1606 3.4 23:09:51 10° N 23:12:54 53° N 23:12:54 53° N
Thor Agena Rocket 3.3 23:09:54 10° NNE 23:14:59 86° WNW 23:15:22 77° SSW
USA 267 3.9 23:12:07 23° E 23:16:03 52° NNE 23:22:21 10° NW
Meteor 2-12 Rocket 4.3 23:15:47 63° SSE 23:16:47 79° E 23:22:57 10° N
Cosmos 1420 Rocket 3.8 23:12:23 10° NNW 23:17:43 88° WSW 23:18:00 80° S
Cosmos 1408 Rocket 3.9 23:19:41 58° NE 23:19:41 58° NE 23:23:24 10° NNE
Cosmos 2366 rocket 3.9 23:18:37 61° SSE 23:19:46 79° E 23:26:07 10° N
Cosmos 2218 Rocket 3.9 23:20:06 61° S 23:21:18 85° E 23:27:37 10° N
Cosmos 1943 4.0 23:23:21 36° E 23:23:21 36° E 23:27:51 10° NE
Cosmos 1959 Rocket 4.3 23:22:36 64° S 23:23:38 86° E 23:29:52 10° N
Cosmos 1346 Rocket 4.0 23:25:21 36° NE 23:25:21 36° NE 23:27:53 10° NNE
Cosmos 2278 Rocket 4.1 23:20:48 10° WNW 23:24:20 17° W 23:25:36 16° WSW
Cosmos 332 Rocket 3.9 23:19:41 10° NNW 23:24:18 68° NE 23:24:18 68° NE
DELTA 2 R/B (1) 3.5 23:19:08 10° W 23:24:11 67° SW 23:24:11 67° SW
Cosmos 1933 4.0 23:21:54 10° N 23:25:03 53° N 23:25:03 53° N
BREEZE-M DEB (TANK) 3.9 23:23:27 10° NW 23:25:12 23° NNW 23:25:12 23° NNW
Cosmos 1782 4.2 23:26:08 10° N 23:28:48 31° NE 23:28:48 31° NE
Cosmos 2297 3.9 23:26:53 10° NNW 23:32:29 57° WSW 23:32:49 56° WSW
Cosmos 1340 3.9 23:34:46 40° NNW 23:34:46 40° NNW 23:37:27 10° N
SL-16 R/B 3.3 23:30:54 23° WSW 23:33:50 39° WNW 23:39:10 10° N
Spot 4 4.0 23:35:06 65° W 23:35:06 65° W 23:39:36 10° NNW
Cosmos 1048 Rocket 3.9 23:36:08 84° E 23:36:08 84° E 23:41:21 10° NNE
Cosmos 1825 4.5 23:36:35 18° WNW 23:36:47 18° WNW 23:39:25 10° NNW
Nimbus 7 Rocket 4.2 23:33:50 10° NNE 23:39:46 86° ESE 23:40:24 73° S
ALOS 2 3.0 23:42:33 61° NNE 23:42:33 61° NNE 23:46:17 10° N
Cosmos 1633 4.2 23:47:54 32° N 23:47:54 32° N 23:49:58 10° N
Cosmos 371 Rocket 4.1 23:47:18 10° NNW 23:51:18 41° W 23:51:18 41° W
